Weather in Angers

France     47°28′10″N   0°32′55″E
temp.,
°C
wind,
m/s
gust,
m/s
humid.,
%
clouds,
%
prec.,
mm/h
press.,
hPa
HPBL,
m
24 july, sat
sat2423:00+19sw510740 0.0 1010470
02:00+17sw512944 0.0 1010389
05:00+16sw61395100 0.0 1009450
08:00+17sw4108697 0.0 1009619
11:00+22sw675890 0.3 10091454
14:00+25wsw7841100 1.4 10082426
17:00+22wsw8956100 0.3 10081259
20:00+18sw61287100 3.9 1008739
25 july, sun
sun2523:00+16sw5119429 0.7 1009452
02:00+16ssw5119699 1.6 1008373
05:00+16ssw499535 0.4 1008308
08:00+17sw51092100 0.8 1008376
11:00+19wsw698088 0.6 1008742
14:00+23w575723 1.9 10081413
17:00+24w556044 2.7 10081331
20:00+21w4676100 5.5 1009313
26 july, mon
mon2623:00+17wnw33906 0.1 101140
02:00+15wnw22945 0.1 101238
05:00+14wnw23970 0.0 101348
08:00+15w22931 0.0 1014107
11:00+21w337012 0.0 1015732
14:00+26w454660 0.0 10141916
17:00+27wsw4540100 0.0 10132292
20:00+24w6851100 0.0 1013848
27 july, tue
tue2723:00+18w4976100 0.0 1014291
02:00+17wsw3890100 0.0 1015241
05:00+16sw359648 0.6 1014151
08:00+16sw2494100 0.8 1014156
11:00+21sw4466100 0.0 10141045
14:00+26sw5740100 0.0 10132414
17:00+25sw6746100 0.0 10122089
20:00+20wsw71067100 0.1 1013646
28 july, wed
wed2823:00+18wsw5978100 0.0 1014415
02:00+17w5977100 0.2 1014411
05:00+14w37855 0.0 1014165
08:00+14wsw36822 0.0 1015185
11:00+20wsw566091 0.1 10151363
14:00+23wsw684539 0.1 10141918
17:00+24wsw794047 0.0 10142315
20:00+22w785399 0.0 10141580